Terminal Aerodrome Forecast
Issued by NWS

Home | Current Version | Previous Version | Text Only | Print | Product List | Glossary On
Versions: 1 2 3 4 5 6 7 8 9 10 11 12 13 14 15 16 17 18
000
FTUS46 KMTR 111126
TAFSTS
TAF
KSTS 111126Z 1112/1212 00000KT 1/2SM FG VV002
     FM111700 00000KT 3SM BR SCT200
     FM111800 33004KT P6SM BKN200
     FM120400 VRB03KT P6SM BKN120
     FM120800 00000KT 1/2SM FG VV002=

USA.gov is the U.S. government's official web portal to all federal, state and local government web resources and services.